owner,sensor,date,latitude,longitude,vertical_datum,sea_water_practical_salinity,qcFlag 
SCCF RECON,ioos:station:SCCF:56:1,2015-08-01T00:00:00Z,26.4645,-82.1044,1.0,28.32,1111122 
SCCF RECON,ioos:station:SCCF:56:1,2015-08-01T01:00:00Z,26.4645,-82.1044,1.0,28.11,1111122 
SCCF RECON,ioos:station:SCCF:56:1,2015-08-01T02:00:00Z,26.4645,-82.1044,1.0,27.99,1111122 
SCCF RECON,ioos:station:SCCF:56:1,2015-08-01T03:00:00Z,26.4645,-82.1044,1.0,28.77,1111122 
SCCF RECON,ioos:station:SCCF:56:1,2015-08-01T04:00:00Z,26.4645,-82.1044,1.0,28.89,1111122 
SCCF RECON,ioos:station:SCCF:56:1,2015-08-01T05:00:00Z,26.4645,-82.1044,1.0,28.84,1111122 
SCCF RECON,ioos:station:SCCF:56:1,2015-08-01T06:00:00Z,26.4645,-82.1044,1.0,28.52,1111122 
SCCF RECON,ioos:station:SCCF:56:1,2015-08-01T07:00:00Z,26.4645,-82.1044,1.0,28.7,1111122 
SCCF RECON,ioos:station:SCCF:56:1,2015-08-01T08:00:00Z,26.4645,-82.1044,1.0,28.35,1111122 
SCCF RECON,ioos:station:SCCF:56:1,2015-08-01T09:00:00Z,26.4645,-82.1044,1.0,28.35,1111122 
SCCF RECON,ioos:station:SCCF:56:1,2015-08-01T10:00:00Z,26.4645,-82.1044,1.0,28.15,1111122 
SCCF RECON,ioos:station:SCCF:56:1,2015-08-01T11:00:00Z,26.4645,-82.1044,1.0,27.82,1111122 
SCCF RECON,ioos:station:SCCF:56:1,2015-08-01T12:00:00Z,26.4645,-82.1044,1.0,27.6,1111122 
SCCF RECON,ioos:station:SCCF:56:1,2015-08-01T13:00:00Z,26.4645,-82.1044,1.0,27.42,1111122 
SCCF RECON,ioos:station:SCCF:56:1,2015-08-01T14:00:00Z,26.4645,-82.1044,1.0,27.96,1111122 
SCCF RECON,ioos:station:SCCF:56:1,2015-08-01T15:00:00Z,26.4645,-82.1044,1.0,28.02,1111122 
SCCF RECON,ioos:station:SCCF:56:1,2015-08-01T16:00:00Z,26.4645,-82.1044,1.0,28.17,1111122 
SCCF RECON,ioos:station:SCCF:56:1,2015-08-01T17:00:00Z,26.4645,-82.1044,1.0,28.2,1111122 
SCCF RECON,ioos:station:SCCF:56:1,2015-08-01T18:00:00Z,26.4645,-82.1044,1.0,28.28,1111122 
SCCF RECON,ioos:station:SCCF:56:1,2015-08-01T19:00:00Z,26.4645,-82.1044,1.0,28.34,1111122 
SCCF RECON,ioos:station:SCCF:56:1,2015-08-01T20:00:00Z,26.4645,-82.1044,1.0,28.24,1111122 
SCCF RECON,ioos:station:SCCF:56:1,2015-08-01T21:00:00Z,26.4645,-82.1044,1.0,28.03,1111122 
SCCF RECON,ioos:station:SCCF:56:1,2015-08-01T22:00:00Z,26.4645,-82.1044,1.0,27.84,1111122 
SCCF RECON,ioos:station:SCCF:56:1,2015-08-01T23:00:00Z,26.4645,-82.1044,1.0,27.64,1111122 
SCCF RECON,ioos:station:SCCF:56:1,2015-08-02T00:00:00Z,26.4645,-82.1044,1.0,27.5,1111122 
SCCF RECON,ioos:station:SCCF:56:1,2015-08-02T01:00:00Z,26.4645,-82.1044,1.0,27.28,1111122 
SCCF RECON,ioos:station:SCCF:56:1,2015-08-02T02:00:00Z,26.4645,-82.1044,1.0,26.98,1111122 
SCCF RECON,ioos:station:SCCF:56:1,2015-08-02T03:00:00Z,26.4645,-82.1044,1.0,26.97,1111122 
SCCF RECON,ioos:station:SCCF:56:1,2015-08-02T04:00:00Z,26.4645,-82.1044,1.0,28.21,1111122 
SCCF RECON,ioos:station:SCCF:56:1,2015-08-02T05:00:00Z,26.4645,-82.1044,1.0,28.35,1111122 
SCCF RECON,ioos:station:SCCF:56:1,2015-08-02T06:00:00Z,26.4645,-82.1044,1.0,28.33,1111122 
SCCF RECON,ioos:station:SCCF:56:1,2015-08-02T07:00:00Z,26.4645,-82.1044,1.0,28.37,1111122 
SCCF RECON,ioos:station:SCCF:56:1,2015-08-02T08:00:00Z,26.4645,-82.1044,1.0,28.28,1111122 
SCCF RECON,ioos:station:SCCF:56:1,2015-08-02T09:00:00Z,26.4645,-82.1044,1.0,28.29,1111122 
SCCF RECON,ioos:station:SCCF:56:1,2015-08-02T10:00:00Z,26.4645,-82.1044,1.0,28.32,1111122 
SCCF RECON,ioos:station:SCCF:56:1,2015-08-02T11:00:00Z,26.4645,-82.1044,1.0,28.16,1111122 
SCCF RECON,ioos:station:SCCF:56:1,2015-08-02T12:00:00Z,26.4645,-82.1044,1.0,27.89,1111122 
SCCF RECON,ioos:station:SCCF:56:1,2015-08-02T13:00:00Z,26.4645,-82.1044,1.0,27.71,1111122 
SCCF RECON,ioos:station:SCCF:56:1,2015-08-02T14:00:00Z,26.4645,-82.1044,1.0,27.7,1111122 
SCCF RECON,ioos:station:SCCF:56:1,2015-08-02T15:00:00Z,26.4645,-82.1044,1.0,28.2,1111122 
SCCF RECON,ioos:station:SCCF:56:1,2015-08-02T16:00:00Z,26.4645,-82.1044,1.0,28.43,1111122 
SCCF RECON,ioos:station:SCCF:56:1,2015-08-02T17:00:00Z,26.4645,-82.1044,1.0,28.48,1111122 
SCCF RECON,ioos:station:SCCF:56:1,2015-08-02T18:00:00Z,26.4645,-82.1044,1.0,28.51,1111122 
SCCF RECON,ioos:station:SCCF:56:1,2015-08-02T19:00:00Z,26.4645,-82.1044,1.0,28.53,1111122 
SCCF RECON,ioos:station:SCCF:56:1,2015-08-02T20:00:00Z,26.4645,-82.1044,1.0,28.55,1111122 
SCCF RECON,ioos:station:SCCF:56:1,2015-08-02T21:00:00Z,26.4645,-82.1044,1.0,28.56,1111122 
SCCF RECON,ioos:station:SCCF:56:1,2015-08-02T22:00:00Z,26.4645,-82.1044,1.0,28.39,1111122 
SCCF RECON,ioos:station:SCCF:56:1,2015-08-02T23:00:00Z,26.4645,-82.1044,1.0,28.28,1111122 
SCCF RECON,ioos:station:SCCF:56:1,2015-08-03T00:00:00Z,26.4645,-82.1044,1.0,28.08,1111122 
SCCF RECON,ioos:station:SCCF:56:1,2015-08-03T01:00:00Z,26.4645,-82.1044,1.0,27.96,1111122 
SCCF RECON,ioos:station:SCCF:56:1,2015-08-03T02:00:00Z,26.4645,-82.1044,1.0,27.79,1111122 
SCCF RECON,ioos:station:SCCF:56:1,2015-08-03T03:00:00Z,26.4645,-82.1044,1.0,27.57,1111122 
SCCF RECON,ioos:station:SCCF:56:1,2015-08-03T04:00:00Z,26.4645,-82.1044,1.0,27.89,1111122 
SCCF RECON,ioos:station:SCCF:56:1,2015-08-03T05:00:00Z,26.4645,-82.1044,1.0,28.25,1111122 
SCCF RECON,ioos:station:SCCF:56:1,2015-08-03T06:00:00Z,26.4645,-82.1044,1.0,28.36,1111122 
SCCF RECON,ioos:station:SCCF:56:1,2015-08-03T07:00:00Z,26.4645,-82.1044,1.0,28.41,1111122 
SCCF RECON,ioos:station:SCCF:56:1,2015-08-03T08:00:00Z,26.4645,-82.1044,1.0,28.45,1111122 
SCCF RECON,ioos:station:SCCF:56:1,2015-08-03T09:00:00Z,26.4645,-82.1044,1.0,28.42,1111122 
SCCF RECON,ioos:station:SCCF:56:1,2015-08-03T10:00:00Z,26.4645,-82.1044,1.0,28.45,1111122 
SCCF RECON,ioos:station:SCCF:56:1,2015-08-03T11:00:00Z,26.4645,-82.1044,1.0,28.41,1111122 
SCCF RECON,ioos:station:SCCF:56:1,2015-08-03T12:00:00Z,26.4645,-82.1044,1.0,28.33,1111122 
SCCF RECON,ioos:station:SCCF:56:1,2015-08-03T13:00:00Z,26.4645,-82.1044,1.0,28.23,1111122 
SCCF RECON,ioos:station:SCCF:56:1,2015-08-03T14:00:00Z,26.4645,-82.1044,1.0,28.11,1111122 
SCCF RECON,ioos:station:SCCF:56:1,2015-08-03T15:00:00Z,26.4645,-82.1044,1.0,28.1,1111122 
SCCF RECON,ioos:station:SCCF:56:1,2015-08-03T16:00:00Z,26.4645,-82.1044,1.0,28.44,1111122 
SCCF RECON,ioos:station:SCCF:56:1,2015-08-03T17:00:00Z,26.4645,-82.1044,1.0,28.49,1111122 
SCCF RECON,ioos:station:SCCF:56:1,2015-08-03T18:00:00Z,26.4645,-82.1044,1.0,28.43,1111122 
SCCF RECON,ioos:station:SCCF:56:1,2015-08-03T19:00:00Z,26.4645,-82.1044,1.0,28.43,1111122 
SCCF RECON,ioos:station:SCCF:56:1,2015-08-03T20:00:00Z,26.4645,-82.1044,1.0,28.41,1111122 
SCCF RECON,ioos:station:SCCF:56:1,2015-08-03T21:00:00Z,26.4645,-82.1044,1.0,28.36,1111122 
SCCF RECON,ioos:station:SCCF:56:1,2015-08-03T22:00:00Z,26.4645,-82.1044,1.0,28.41,1111122 
SCCF RECON,ioos:station:SCCF:56:1,2015-08-03T23:00:00Z,26.4645,-82.1044,1.0,28.35,1111122 
SCCF RECON,ioos:station:SCCF:56:1,2015-08-04T00:00:00Z,26.4645,-82.1044,1.0,28.24,1111122 
SCCF RECON,ioos:station:SCCF:56:1,2015-08-04T01:00:00Z,26.4645,-82.1044,1.0,28.1,1111122 
SCCF RECON,ioos:station:SCCF:56:1,2015-08-04T02:00:00Z,26.4645,-82.1044,1.0,28.02,1111122 
SCCF RECON,ioos:station:SCCF:56:1,2015-08-04T03:00:00Z,26.4645,-82.1044,1.0,27.84,1111122 
SCCF RECON,ioos:station:SCCF:56:1,2015-08-04T04:00:00Z,26.4645,-82.1044,1.0,27.79,1111122 
SCCF RECON,ioos:station:SCCF:56:1,2015-08-04T05:00:00Z,26.4645,-82.1044,1.0,28.02,1111122 
SCCF RECON,ioos:station:SCCF:56:1,2015-08-04T06:00:00Z,26.4645,-82.1044,1.0,28.36,1111122 
SCCF RECON,ioos:station:SCCF:56:1,2015-08-04T07:00:00Z,26.4645,-82.1044,1.0,28.39,1111122 
SCCF RECON,ioos:station:SCCF:56:1,2015-08-04T08:00:00Z,26.4645,-82.1044,1.0,28.02,1111122 
SCCF RECON,ioos:station:SCCF:56:1,2015-08-04T09:00:00Z,26.4645,-82.1044,1.0,27.86,1111122 
SCCF RECON,ioos:station:SCCF:56:1,2015-08-04T10:00:00Z,26.4645,-82.1044,1.0,27.97,1111122 
SCCF RECON,ioos:station:SCCF:56:1,2015-08-04T11:00:00Z,26.4645,-82.1044,1.0,27.94,1111122 
SCCF RECON,ioos:station:SCCF:56:1,2015-08-04T12:00:00Z,26.4645,-82.1044,1.0,27.87,1111122 
SCCF RECON,ioos:station:SCCF:56:1,2015-08-04T13:00:00Z,26.4645,-82.1044,1.0,27.85,1111122 
SCCF RECON,ioos:station:SCCF:56:1,2015-08-04T14:00:00Z,26.4645,-82.1044,1.0,27.82,1111122 
SCCF RECON,ioos:station:SCCF:56:1,2015-08-04T15:00:00Z,26.4645,-82.1044,1.0,27.76,1111122 
SCCF RECON,ioos:station:SCCF:56:1,2015-08-04T16:00:00Z,26.4645,-82.1044,1.0,27.73,1111122 
SCCF RECON,ioos:station:SCCF:56:1,2015-08-04T17:00:00Z,26.4645,-82.1044,1.0,27.04,1111122 
SCCF RECON,ioos:station:SCCF:56:1,2015-08-04T18:00:00Z,26.4645,-82.1044,1.0,27.13,1111122 
SCCF RECON,ioos:station:SCCF:56:1,2015-08-04T19:00:00Z,26.4645,-82.1044,1.0,27.22,1111122 
SCCF RECON,ioos:station:SCCF:56:1,2015-08-04T20:00:00Z,26.4645,-82.1044,1.0,27.27,1111122 
SCCF RECON,ioos:station:SCCF:56:1,2015-08-04T21:00:00Z,26.4645,-82.1044,1.0,27.25,1111122 
SCCF RECON,ioos:station:SCCF:56:1,2015-08-04T22:00:00Z,26.4645,-82.1044,1.0,27.25,1111122 
SCCF RECON,ioos:station:SCCF:56:1,2015-08-04T23:00:00Z,26.4645,-82.1044,1.0,27.27,1111122 
SCCF RECON,ioos:station:SCCF:56:1,2015-08-05T00:00:00Z,26.4645,-82.1044,1.0,27.32,1111122 
SCCF RECON,ioos:station:SCCF:56:1,2015-08-05T01:00:00Z,26.4645,-82.1044,1.0,27.34,1111122 
SCCF RECON,ioos:station:SCCF:56:1,2015-08-05T02:00:00Z,26.4645,-82.1044,1.0,27.39,1111122 
SCCF RECON,ioos:station:SCCF:56:1,2015-08-05T03:00:00Z,26.4645,-82.1044,1.0,27.45,1111122 
SCCF RECON,ioos:station:SCCF:56:1,2015-08-05T04:00:00Z,26.4645,-82.1044,1.0,27.47,1111122 
SCCF RECON,ioos:station:SCCF:56:1,2015-08-05T05:00:00Z,26.4645,-82.1044,1.0,27.47,1111122 
SCCF RECON,ioos:station:SCCF:56:1,2015-08-05T06:00:00Z,26.4645,-82.1044,1.0,27.29,1111122 
SCCF RECON,ioos:station:SCCF:56:1,2015-08-05T07:00:00Z,26.4645,-82.1044,1.0,27.34,1111122 
SCCF RECON,ioos:station:SCCF:56:1,2015-08-05T08:00:00Z,26.4645,-82.1044,1.0,27.31,1111122 
SCCF RECON,ioos:station:SCCF:56:1,2015-08-05T09:00:00Z,26.4645,-82.1044,1.0,27.25,1111122 
SCCF RECON,ioos:station:SCCF:56:1,2015-08-05T10:00:00Z,26.4645,-82.1044,1.0,27.13,1111122 
SCCF RECON,ioos:station:SCCF:56:1,2015-08-05T11:00:00Z,26.4645,-82.1044,1.0,27.12,1111122 
SCCF RECON,ioos:station:SCCF:56:1,2015-08-05T12:00:00Z,26.4645,-82.1044,1.0,27.22,1111122 
SCCF RECON,ioos:station:SCCF:56:1,2015-08-05T13:00:00Z,26.4645,-82.1044,1.0,27.27,1111122 
SCCF RECON,ioos:station:SCCF:56:1,2015-08-05T14:00:00Z,26.4645,-82.1044,1.0,27.33,1111122 
SCCF RECON,ioos:station:SCCF:56:1,2015-08-05T15:00:00Z,26.4645,-82.1044,1.0,27.35,1111122 
SCCF RECON,ioos:station:SCCF:56:1,2015-08-05T16:00:00Z,26.4645,-82.1044,1.0,27.38,1111122 
SCCF RECON,ioos:station:SCCF:56:1,2015-08-05T17:00:00Z,26.4645,-82.1044,1.0,27.41,1111122 
SCCF RECON,ioos:station:SCCF:56:1,2015-08-05T18:00:00Z,26.4645,-82.1044,1.0,27.31,1111122 
SCCF RECON,ioos:station:SCCF:56:1,2015-08-05T19:00:00Z,26.4645,-82.1044,1.0,27.07,1111122 
SCCF RECON,ioos:station:SCCF:56:1,2015-08-05T20:00:00Z,26.4645,-82.1044,1.0,27.02,1111122 
SCCF RECON,ioos:station:SCCF:56:1,2015-08-05T21:00:00Z,26.4645,-82.1044,1.0,27.0,1111122 
SCCF RECON,ioos:station:SCCF:56:1,2015-08-05T22:00:00Z,26.4645,-82.1044,1.0,27.02,1111122 
SCCF RECON,ioos:station:SCCF:56:1,2015-08-05T23:00:00Z,26.4645,-82.1044,1.0,27.13,1111122 
SCCF RECON,ioos:station:SCCF:56:1,2015-08-06T00:00:00Z,26.4645,-82.1044,1.0,27.06,1111122 
SCCF RECON,ioos:station:SCCF:56:1,2015-08-06T01:00:00Z,26.4645,-82.1044,1.0,27.1,1111122 
SCCF RECON,ioos:station:SCCF:56:1,2015-08-06T02:00:00Z,26.4645,-82.1044,1.0,27.17,1111122 
SCCF RECON,ioos:station:SCCF:56:1,2015-08-06T03:00:00Z,26.4645,-82.1044,1.0,27.23,1111122 
SCCF RECON,ioos:station:SCCF:56:1,2015-08-06T04:00:00Z,26.4645,-82.1044,1.0,27.26,1111122 
SCCF RECON,ioos:station:SCCF:56:1,2015-08-06T05:00:00Z,26.4645,-82.1044,1.0,27.32,1111122 
SCCF RECON,ioos:station:SCCF:56:1,2015-08-06T06:00:00Z,26.4645,-82.1044,1.0,25.96,1111122 
SCCF RECON,ioos:station:SCCF:56:1,2015-08-06T07:00:00Z,26.4645,-82.1044,1.0,26.33,1111122 
SCCF RECON,ioos:station:SCCF:56:1,2015-08-06T08:00:00Z,26.4645,-82.1044,1.0,26.41,1111122 
SCCF RECON,ioos:station:SCCF:56:1,2015-08-06T09:00:00Z,26.4645,-82.1044,1.0,26.51,1111122 
SCCF RECON,ioos:station:SCCF:56:1,2015-08-06T10:00:00Z,26.4645,-82.1044,1.0,26.55,1111122 
SCCF RECON,ioos:station:SCCF:56:1,2015-08-06T11:00:00Z,26.4645,-82.1044,1.0,26.72,1111122 
SCCF RECON,ioos:station:SCCF:56:1,2015-08-06T12:00:00Z,26.4645,-82.1044,1.0,26.66,1111122 
SCCF RECON,ioos:station:SCCF:56:1,2015-08-06T13:00:00Z,26.4645,-82.1044,1.0,26.68,1111122 
SCCF RECON,ioos:station:SCCF:56:1,2015-08-06T14:00:00Z,26.4645,-82.1044,1.0,26.8,1111122 
SCCF RECON,ioos:station:SCCF:56:1,2015-08-06T15:00:00Z,26.4645,-82.1044,1.0,26.91,1111122 
SCCF RECON,ioos:station:SCCF:56:1,2015-08-06T16:00:00Z,26.4645,-82.1044,1.0,27.04,1111122 
SCCF RECON,ioos:station:SCCF:56:1,2015-08-06T17:00:00Z,26.4645,-82.1044,1.0,27.12,1111122 
SCCF RECON,ioos:station:SCCF:56:1,2015-08-06T18:00:00Z,26.4645,-82.1044,1.0,27.22,1111122 
SCCF RECON,ioos:station:SCCF:56:1,2015-08-06T19:00:00Z,26.4645,-82.1044,1.0,27.17,1111122 
SCCF RECON,ioos:station:SCCF:56:1,2015-08-06T20:00:00Z,26.4645,-82.1044,1.0,26.86,1111122 
SCCF RECON,ioos:station:SCCF:56:1,2015-08-06T21:00:00Z,26.4645,-82.1044,1.0,26.76,1111122 
SCCF RECON,ioos:station:SCCF:56:1,2015-08-06T22:00:00Z,26.4645,-82.1044,1.0,26.72,1111122 
SCCF RECON,ioos:station:SCCF:56:1,2015-08-06T23:00:00Z,26.4645,-82.1044,1.0,26.7,1111122 
SCCF RECON,ioos:station:SCCF:56:1,2015-08-07T00:00:00Z,26.4645,-82.1044,1.0,26.72,1111122 
SCCF RECON,ioos:station:SCCF:56:1,2015-08-07T01:00:00Z,26.4645,-82.1044,1.0,26.72,1111122 
SCCF RECON,ioos:station:SCCF:56:1,2015-08-07T02:00:00Z,26.4645,-82.1044,1.0,26.95,1111122 
SCCF RECON,ioos:station:SCCF:56:1,2015-08-07T03:00:00Z,26.4645,-82.1044,1.0,26.82,1111122 
SCCF RECON,ioos:station:SCCF:56:1,2015-08-07T04:00:00Z,26.4645,-82.1044,1.0,26.9,1111122 
SCCF RECON,ioos:station:SCCF:56:1,2015-08-07T05:00:00Z,26.4645,-82.1044,1.0,26.91,1111122 
SCCF RECON,ioos:station:SCCF:56:1,2015-08-07T06:00:00Z,26.4645,-82.1044,1.0,26.97,1111122 
SCCF RECON,ioos:station:SCCF:56:1,2015-08-07T07:00:00Z,26.4645,-82.1044,1.0,25.98,1111122 
SCCF RECON,ioos:station:SCCF:56:1,2015-08-07T08:00:00Z,26.4645,-82.1044,1.0,26.1,1111122 
SCCF RECON,ioos:station:SCCF:56:1,2015-08-07T09:00:00Z,26.4645,-82.1044,1.0,26.25,1111122 
SCCF RECON,ioos:station:SCCF:56:1,2015-08-07T10:00:00Z,26.4645,-82.1044,1.0,26.46,1111122 
SCCF RECON,ioos:station:SCCF:56:1,2015-08-07T11:00:00Z,26.4645,-82.1044,1.0,26.5,1111122 
SCCF RECON,ioos:station:SCCF:56:1,2015-08-07T12:00:00Z,26.4645,-82.1044,1.0,26.6,1111122 
SCCF RECON,ioos:station:SCCF:56:1,2015-08-07T13:00:00Z,26.4645,-82.1044,1.0,26.56,1111122 
SCCF RECON,ioos:station:SCCF:56:1,2015-08-07T14:00:00Z,26.4645,-82.1044,1.0,26.59,1111122 
SCCF RECON,ioos:station:SCCF:56:1,2015-08-07T15:00:00Z,26.4645,-82.1044,1.0,26.67,1111122 
SCCF RECON,ioos:station:SCCF:56:1,2015-08-07T16:00:00Z,26.4645,-82.1044,1.0,26.79,1111122 
SCCF RECON,ioos:station:SCCF:56:1,2015-08-07T17:00:00Z,26.4645,-82.1044,1.0,26.96,1111122 
SCCF RECON,ioos:station:SCCF:56:1,2015-08-07T18:00:00Z,26.4645,-82.1044,1.0,27.1,1111122 
SCCF RECON,ioos:station:SCCF:56:1,2015-08-07T19:00:00Z,26.4645,-82.1044,1.0,27.21,1111122 
SCCF RECON,ioos:station:SCCF:56:1,2015-08-07T20:00:00Z,26.4645,-82.1044,1.0,27.24,1111122 
SCCF RECON,ioos:station:SCCF:56:1,2015-08-07T21:00:00Z,26.4645,-82.1044,1.0,27.08,1111122 
SCCF RECON,ioos:station:SCCF:56:1,2015-08-07T22:00:00Z,26.4645,-82.1044,1.0,27.04,1111122 
SCCF RECON,ioos:station:SCCF:56:1,2015-08-07T23:00:00Z,26.4645,-82.1044,1.0,26.99,1111122 
SCCF RECON,ioos:station:SCCF:56:1,2015-08-08T00:00:00Z,26.4645,-82.1044,1.0,26.95,1111122 
SCCF RECON,ioos:station:SCCF:56:1,2015-08-08T01:00:00Z,26.4645,-82.1044,1.0,26.99,1111122 
SCCF RECON,ioos:station:SCCF:56:1,2015-08-08T02:00:00Z,26.4645,-82.1044,1.0,26.95,1111122 
SCCF RECON,ioos:station:SCCF:56:1,2015-08-08T03:00:00Z,26.4645,-82.1044,1.0,27.01,1111122 
SCCF RECON,ioos:station:SCCF:56:1,2015-08-08T04:00:00Z,26.4645,-82.1044,1.0,27.01,1111122 
SCCF RECON,ioos:station:SCCF:56:1,2015-08-08T05:00:00Z,26.4645,-82.1044,1.0,27.03,1111122 
SCCF RECON,ioos:station:SCCF:56:1,2015-08-08T06:00:00Z,26.4645,-82.1044,1.0,27.04,1111122 
SCCF RECON,ioos:station:SCCF:56:1,2015-08-08T07:00:00Z,26.4645,-82.1044,1.0,27.09,1111122 
SCCF RECON,ioos:station:SCCF:56:1,2015-08-08T08:00:00Z,26.4645,-82.1044,1.0,27.03,1111122 
SCCF RECON,ioos:station:SCCF:56:1,2015-08-08T09:00:00Z,26.4645,-82.1044,1.0,26.93,1111122 
SCCF RECON,ioos:station:SCCF:56:1,2015-08-08T10:00:00Z,26.4645,-82.1044,1.0,26.94,1111122 
SCCF RECON,ioos:station:SCCF:56:1,2015-08-08T11:00:00Z,26.4645,-82.1044,1.0,27.03,1111122 
SCCF RECON,ioos:station:SCCF:56:1,2015-08-08T12:00:00Z,26.4645,-82.1044,1.0,27.05,1111122 
SCCF RECON,ioos:station:SCCF:56:1,2015-08-08T13:00:00Z,26.4645,-82.1044,1.0,27.07,1111122 
SCCF RECON,ioos:station:SCCF:56:1,2015-08-08T14:00:00Z,26.4645,-82.1044,1.0,27.09,1111122 
SCCF RECON,ioos:station:SCCF:56:1,2015-08-08T15:00:00Z,26.4645,-82.1044,1.0,27.11,1111122 
SCCF RECON,ioos:station:SCCF:56:1,2015-08-08T16:00:00Z,26.4645,-82.1044,1.0,27.18,1111122 
SCCF RECON,ioos:station:SCCF:56:1,2015-08-08T17:00:00Z,26.4645,-82.1044,1.0,27.25,1111122 
SCCF RECON,ioos:station:SCCF:56:1,2015-08-08T18:00:00Z,26.4645,-82.1044,1.0,27.34,1111122 
SCCF RECON,ioos:station:SCCF:56:1,2015-08-08T19:00:00Z,26.4645,-82.1044,1.0,27.43,1111122 
SCCF RECON,ioos:station:SCCF:56:1,2015-08-08T20:00:00Z,26.4645,-82.1044,1.0,27.52,1111122 
SCCF RECON,ioos:station:SCCF:56:1,2015-08-08T21:00:00Z,26.4645,-82.1044,1.0,27.54,1111122 
SCCF RECON,ioos:station:SCCF:56:1,2015-08-08T22:00:00Z,26.4645,-82.1044,1.0,27.12,1111122 
SCCF RECON,ioos:station:SCCF:56:1,2015-08-08T23:00:00Z,26.4645,-82.1044,1.0,26.82,1111122 
SCCF RECON,ioos:station:SCCF:56:1,2015-08-09T00:00:00Z,26.4645,-82.1044,1.0,26.82,1111122 
SCCF RECON,ioos:station:SCCF:56:1,2015-08-09T01:00:00Z,26.4645,-82.1044,1.0,26.8,1111122 
SCCF RECON,ioos:station:SCCF:56:1,2015-08-09T02:00:00Z,26.4645,-82.1044,1.0,26.87,1111122 
SCCF RECON,ioos:station:SCCF:56:1,2015-08-09T03:00:00Z,26.4645,-82.1044,1.0,26.9,1111122 
SCCF RECON,ioos:station:SCCF:56:1,2015-08-09T04:00:00Z,26.4645,-82.1044,1.0,26.72,1111122 
SCCF RECON,ioos:station:SCCF:56:1,2015-08-09T05:00:00Z,26.4645,-82.1044,1.0,26.8,1111122 
SCCF RECON,ioos:station:SCCF:56:1,2015-08-09T06:00:00Z,26.4645,-82.1044,1.0,26.62,1111122 
SCCF RECON,ioos:station:SCCF:56:1,2015-08-09T07:00:00Z,26.4645,-82.1044,1.0,26.47,1111122 
SCCF RECON,ioos:station:SCCF:56:1,2015-08-09T08:00:00Z,26.4645,-82.1044,1.0,26.6,1111122 
SCCF RECON,ioos:station:SCCF:56:1,2015-08-09T09:00:00Z,26.4645,-82.1044,1.0,26.65,1111122 
SCCF RECON,ioos:station:SCCF:56:1,2015-08-09T10:00:00Z,26.4645,-82.1044,1.0,26.82,1111122 
SCCF RECON,ioos:station:SCCF:56:1,2015-08-09T11:00:00Z,26.4645,-82.1044,1.0,27.04,1111122 
SCCF RECON,ioos:station:SCCF:56:1,2015-08-09T12:00:00Z,26.4645,-82.1044,1.0,27.05,1111122 
SCCF RECON,ioos:station:SCCF:56:1,2015-08-09T13:00:00Z,26.4645,-82.1044,1.0,26.95,1111122 
SCCF RECON,ioos:station:SCCF:56:1,2015-08-09T14:00:00Z,26.4645,-82.1044,1.0,26.95,1111122 
SCCF RECON,ioos:station:SCCF:56:1,2015-08-09T15:00:00Z,26.4645,-82.1044,1.0,26.89,1111122 
SCCF RECON,ioos:station:SCCF:56:1,2015-08-09T16:00:00Z,26.4645,-82.1044,1.0,26.88,1111122 
SCCF RECON,ioos:station:SCCF:56:1,2015-08-09T17:00:00Z,26.4645,-82.1044,1.0,26.83,1111122 
SCCF RECON,ioos:station:SCCF:56:1,2015-08-09T18:00:00Z,26.4645,-82.1044,1.0,26.66,1111122 
SCCF RECON,ioos:station:SCCF:56:1,2015-08-09T19:00:00Z,26.4645,-82.1044,1.0,26.5,1111122 
SCCF RECON,ioos:station:SCCF:56:1,2015-08-09T20:00:00Z,26.4645,-82.1044,1.0,26.31,1111122 
SCCF RECON,ioos:station:SCCF:56:1,2015-08-09T21:00:00Z,26.4645,-82.1044,1.0,26.19,1111122 
SCCF RECON,ioos:station:SCCF:56:1,2015-08-09T22:00:00Z,26.4645,-82.1044,1.0,26.12,1111122 
SCCF RECON,ioos:station:SCCF:56:1,2015-08-09T23:00:00Z,26.4645,-82.1044,1.0,26.67,1111122 
SCCF RECON,ioos:station:SCCF:56:1,2015-08-10T00:00:00Z,26.4645,-82.1044,1.0,27.03,1111122 
SCCF RECON,ioos:station:SCCF:56:1,2015-08-10T01:00:00Z,26.4645,-82.1044,1.0,27.12,1111122 
SCCF RECON,ioos:station:SCCF:56:1,2015-08-10T02:00:00Z,26.4645,-82.1044,1.0,27.11,1111122 
SCCF RECON,ioos:station:SCCF:56:1,2015-08-10T03:00:00Z,26.4645,-82.1044,1.0,26.91,1111122 
SCCF RECON,ioos:station:SCCF:56:1,2015-08-10T04:00:00Z,26.4645,-82.1044,1.0,26.7,1111122 
SCCF RECON,ioos:station:SCCF:56:1,2015-08-10T05:00:00Z,26.4645,-82.1044,1.0,26.76,1111122 
SCCF RECON,ioos:station:SCCF:56:1,2015-08-10T06:00:00Z,26.4645,-82.1044,1.0,26.65,1111122 
SCCF RECON,ioos:station:SCCF:56:1,2015-08-10T07:00:00Z,26.4645,-82.1044,1.0,26.55,1111122 
SCCF RECON,ioos:station:SCCF:56:1,2015-08-10T08:00:00Z,26.4645,-82.1044,1.0,26.35,1111122 
SCCF RECON,ioos:station:SCCF:56:1,2015-08-10T09:00:00Z,26.4645,-82.1044,1.0,26.39,1111122 
SCCF RECON,ioos:station:SCCF:56:1,2015-08-10T10:00:00Z,26.4645,-82.1044,1.0,26.36,1111122 
SCCF RECON,ioos:station:SCCF:56:1,2015-08-10T11:00:00Z,26.4645,-82.1044,1.0,26.66,1111122 
SCCF RECON,ioos:station:SCCF:56:1,2015-08-10T12:00:00Z,26.4645,-82.1044,1.0,26.82,1111122 
SCCF RECON,ioos:station:SCCF:56:1,2015-08-10T13:00:00Z,26.4645,-82.1044,1.0,26.81,1111122 
SCCF RECON,ioos:station:SCCF:56:1,2015-08-10T14:00:00Z,26.4645,-82.1044,1.0,26.84,1111122 
SCCF RECON,ioos:station:SCCF:56:1,2015-08-10T15:00:00Z,26.4645,-82.1044,1.0,26.88,1111122 
SCCF RECON,ioos:station:SCCF:56:1,2015-08-10T16:00:00Z,26.4645,-82.1044,1.0,26.6,1111122 
SCCF RECON,ioos:station:SCCF:56:1,2015-08-10T17:00:00Z,26.4645,-82.1044,1.0,26.54,1111122 
SCCF RECON,ioos:station:SCCF:56:1,2015-08-10T18:00:00Z,26.4645,-82.1044,1.0,26.43,1111122 
SCCF RECON,ioos:station:SCCF:56:1,2015-08-10T19:00:00Z,26.4645,-82.1044,1.0,26.19,1111122 
SCCF RECON,ioos:station:SCCF:56:1,2015-08-10T20:00:00Z,26.4645,-82.1044,1.0,26.04,1111122 
SCCF RECON,ioos:station:SCCF:56:1,2015-08-10T21:00:00Z,26.4645,-82.1044,1.0,25.92,1111122 
SCCF RECON,ioos:station:SCCF:56:1,2015-08-10T22:00:00Z,26.4645,-82.1044,1.0,25.85,1111122 
SCCF RECON,ioos:station:SCCF:56:1,2015-08-10T23:00:00Z,26.4645,-82.1044,1.0,25.72,1111122 
SCCF RECON,ioos:station:SCCF:56:1,2015-08-11T00:00:00Z,26.4645,-82.1044,1.0,26.27,1111122 
SCCF RECON,ioos:station:SCCF:56:1,2015-08-11T01:00:00Z,26.4645,-82.1044,1.0,26.43,1111122 
SCCF RECON,ioos:station:SCCF:56:1,2015-08-11T02:00:00Z,26.4645,-82.1044,1.0,26.55,1111122 
SCCF RECON,ioos:station:SCCF:56:1,2015-08-11T03:00:00Z,26.4645,-82.1044,1.0,26.61,1111122 
SCCF RECON,ioos:station:SCCF:56:1,2015-08-11T04:00:00Z,26.4645,-82.1044,1.0,26.63,1111122 
SCCF RECON,ioos:station:SCCF:56:1,2015-08-11T05:00:00Z,26.4645,-82.1044,1.0,27.06,1111122 
SCCF RECON,ioos:station:SCCF:56:1,2015-08-11T06:00:00Z,26.4645,-82.1044,1.0,26.89,1111122 
SCCF RECON,ioos:station:SCCF:56:1,2015-08-11T07:00:00Z,26.4645,-82.1044,1.0,26.94,1111122 
SCCF RECON,ioos:station:SCCF:56:1,2015-08-11T08:00:00Z,26.4645,-82.1044,1.0,27.0,1111122 
SCCF RECON,ioos:station:SCCF:56:1,2015-08-11T09:00:00Z,26.4645,-82.1044,1.0,26.94,1111122 
SCCF RECON,ioos:station:SCCF:56:1,2015-08-11T10:00:00Z,26.4645,-82.1044,1.0,26.91,1111122 
SCCF RECON,ioos:station:SCCF:56:1,2015-08-11T11:00:00Z,26.4645,-82.1044,1.0,26.99,1111122 
SCCF RECON,ioos:station:SCCF:56:1,2015-08-11T12:00:00Z,26.4645,-82.1044,1.0,27.06,1111122 
SCCF RECON,ioos:station:SCCF:56:1,2015-08-11T13:00:00Z,26.4645,-82.1044,1.0,26.96,1111122 
SCCF RECON,ioos:station:SCCF:56:1,2015-08-11T14:00:00Z,26.4645,-82.1044,1.0,26.93,1111122 
SCCF RECON,ioos:station:SCCF:56:1,2015-08-11T15:00:00Z,26.4645,-82.1044,1.0,27.03,1111122 
SCCF RECON,ioos:station:SCCF:56:1,2015-08-11T16:00:00Z,26.4645,-82.1044,1.0,27.13,1111122 
SCCF RECON,ioos:station:SCCF:56:1,2015-08-11T17:00:00Z,26.4645,-82.1044,1.0,27.13,1111122 
SCCF RECON,ioos:station:SCCF:56:1,2015-08-11T18:00:00Z,26.4645,-82.1044,1.0,27.09,1111122 
SCCF RECON,ioos:station:SCCF:56:1,2015-08-11T19:00:00Z,26.4645,-82.1044,1.0,27.04,1111122 
SCCF RECON,ioos:station:SCCF:56:1,2015-08-11T20:00:00Z,26.4645,-82.1044,1.0,26.95,1111122 
SCCF RECON,ioos:station:SCCF:56:1,2015-08-11T21:00:00Z,26.4645,-82.1044,1.0,26.91,1111122 
SCCF RECON,ioos:station:SCCF:56:1,2015-08-11T22:00:00Z,26.4645,-82.1044,1.0,26.86,1111122 